Time,TemperatureF,DewpointF,PressureIn,WindDirection,WindDirectionDegrees,WindSpeedMPH,WindSpeedGustMPH,Humidity,HourlyPrecipIn,Conditions,Clouds,dailyrainin,SoftwareType,DateUTC
2013-09-11 00:01:00,70.5,68.7,30.13,NNE,16,1.0,8.0,94,0.00,,,0.12,meteohub,2013-09-11 04:01:00,
2013-09-11 00:06:00,70.5,68.7,30.13,NW,315,4.0,8.0,94,0.00,,,0.00,meteohub,2013-09-11 04:06:00,
2013-09-11 00:11:00,70.7,68.9,30.13,WNW,303,2.0,12.0,94,0.00,,,0.00,meteohub,2013-09-11 04:11:00,
2013-09-11 00:16:00,70.7,68.9,30.13,NW,316,4.0,12.0,94,0.00,,,0.00,meteohub,2013-09-11 04:16:00,
2013-09-11 00:21:00,70.7,68.9,30.13,NW,310,2.0,9.0,94,0.00,,,0.00,meteohub,2013-09-11 04:21:00,
2013-09-11 00:26:00,70.9,69.1,30.13,NW,325,2.0,9.0,94,0.00,,,0.00,meteohub,2013-09-11 04:26:00,
2013-09-11 00:31:00,70.9,69.1,30.13,NNE,12,3.0,7.0,94,0.00,,,0.00,meteohub,2013-09-11 04:31:00,
2013-09-11 00:36:00,70.9,69.1,30.13,NNW,329,0.0,8.0,94,0.00,,,0.00,meteohub,2013-09-11 04:36:00,
2013-09-11 00:42:00,70.9,69.1,30.13,NNW,345,2.0,10.0,94,0.00,,,0.00,meteohub,2013-09-11 04:42:00,
2013-09-11 00:47:00,70.9,69.1,30.13,NW,305,2.0,10.0,94,0.00,,,0.00,meteohub,2013-09-11 04:47:00,
2013-09-11 00:52:00,70.9,69.1,30.13,WSW,252,4.0,10.0,94,0.00,,,0.00,meteohub,2013-09-11 04:52:00,
2013-09-11 00:57:00,70.9,69.1,30.13,NW,326,3.0,10.0,94,0.00,,,0.00,meteohub,2013-09-11 04:57:00,
2013-09-11 01:02:00,70.9,69.1,30.13,NNE,23,4.0,10.0,94,0.00,,,0.00,meteohub,2013-09-11 05:02:00,
2013-09-11 01:07:00,70.9,69.1,30.13,NNW,330,1.0,10.0,94,0.00,,,0.00,meteohub,2013-09-11 05:07:00,
2013-09-11 01:12:00,70.9,69.1,30.12,NW,318,2.0,10.0,94,0.00,,,0.00,meteohub,2013-09-11 05:12:00,
2013-09-11 01:17:00,70.7,68.9,30.12,NW,315,4.0,10.0,94,0.00,,,0.00,meteohub,2013-09-11 05:17:00,
2013-09-11 01:22:00,70.9,69.1,30.12,NNW,336,4.0,10.0,94,0.00,,,0.00,meteohub,2013-09-11 05:22:00,
2013-09-11 01:27:00,70.7,68.9,30.12,NNE,32,3.0,10.0,94,0.00,,,0.00,meteohub,2013-09-11 05:27:00,
2013-09-11 01:32:00,70.7,68.9,30.12,North,359,1.0,10.0,94,0.00,,,0.00,meteohub,2013-09-11 05:32:00,
2013-09-11 01:37:00,70.7,68.9,30.12,NW,308,6.0,9.0,94,0.00,,,0.00,meteohub,2013-09-11 05:37:00,
2013-09-11 01:42:00,70.7,68.9,30.12,NNW,334,3.0,9.0,94,0.00,,,0.00,meteohub,2013-09-11 05:42:00,
2013-09-11 01:47:00,70.7,68.9,30.12,NW,322,4.0,9.0,94,0.00,,,0.00,meteohub,2013-09-11 05:47:00,
2013-09-11 01:52:00,70.7,68.9,30.12,East,85,1.0,9.0,94,0.00,,,0.00,meteohub,2013-09-11 05:52:00,
2013-09-11 01:57:00,70.7,68.9,30.12,NW,307,1.0,8.0,94,0.00,,,0.00,meteohub,2013-09-11 05:57:00,
2013-09-11 02:02:00,70.5,68.7,30.11,NNW,339,1.0,8.0,94,0.00,,,0.00,meteohub,2013-09-11 06:02:00,
2013-09-11 02:06:00,70.5,68.7,30.11,North,4,2.0,8.0,94,0.00,,,0.00,meteohub,2013-09-11 06:06:00,
2013-09-11 02:11:00,70.7,68.9,30.11,North,8,2.0,8.0,94,0.00,,,0.00,meteohub,2013-09-11 06:11:00,
2013-09-11 02:17:00,70.7,68.9,30.11,NNW,341,2.0,8.0,94,0.00,,,0.00,meteohub,2013-09-11 06:17:00,
2013-09-11 02:22:00,70.7,68.9,30.11,West,269,3.0,8.0,94,0.00,,,0.00,meteohub,2013-09-11 06:22:00,
2013-09-11 02:27:00,70.7,68.9,30.11,North,354,1.0,6.0,94,0.00,,,0.00,meteohub,2013-09-11 06:27:00,
2013-09-11 02:32:00,70.7,68.9,30.11,North,359,2.0,7.0,94,0.00,,,0.00,meteohub,2013-09-11 06:32:00,
2013-09-11 02:37:00,70.7,68.9,30.11,NW,320,3.0,7.0,94,0.00,,,0.00,meteohub,2013-09-11 06:37:00,
2013-09-11 02:42:00,70.5,68.7,30.11,NNW,343,1.0,5.0,94,0.00,,,0.00,meteohub,2013-09-11 06:42:00,
2013-09-11 02:47:00,70.5,68.7,30.10,NW,312,2.0,5.0,94,0.00,,,0.00,meteohub,2013-09-11 06:47:00,
2013-09-11 02:52:00,70.5,68.7,30.10,NW,314,2.0,6.0,94,0.00,,,0.00,meteohub,2013-09-11 06:52:00,
2013-09-11 02:57:00,70.5,68.7,30.10,North,11,3.0,6.0,94,0.00,,,0.00,meteohub,2013-09-11 06:57:00,
2013-09-11 03:02:00,70.5,68.7,30.10,NNW,335,1.0,6.0,94,0.00,,,0.00,meteohub,2013-09-11 07:02:00,
2013-09-11 03:07:00,70.5,68.7,30.10,West,272,3.0,6.0,94,0.00,,,0.00,meteohub,2013-09-11 07:07:00,
2013-09-11 03:12:00,70.5,68.7,30.10,North,354,3.0,6.0,94,0.00,,,0.00,meteohub,2013-09-11 07:12:00,
2013-09-11 03:17:00,70.5,68.7,30.10,NNW,339,2.0,6.0,94,0.00,,,0.00,meteohub,2013-09-11 07:17:00,
2013-09-11 03:21:00,70.5,68.7,30.10,NNW,331,2.0,5.0,94,0.00,,,0.00,meteohub,2013-09-11 07:21:00,
2013-09-11 03:27:00,70.5,68.7,30.10,North,350,2.0,5.0,94,0.00,,,0.00,meteohub,2013-09-11 07:27:00,
2013-09-11 03:31:00,70.5,68.7,30.10,North,354,2.0,5.0,94,0.00,,,0.00,meteohub,2013-09-11 07:31:00,
2013-09-11 03:36:00,70.5,68.7,30.10,NW,314,0.0,6.0,94,0.00,,,0.00,meteohub,2013-09-11 07:36:00,
2013-09-11 03:41:00,70.5,68.7,30.10,NW,319,1.0,6.0,94,0.00,,,0.00,meteohub,2013-09-11 07:41:00,
2013-09-11 03:46:00,70.5,68.7,30.10,North,8,4.0,5.0,94,0.00,,,0.00,meteohub,2013-09-11 07:46:00,
2013-09-11 03:52:00,70.3,68.5,30.10,NNW,343,2.0,5.0,94,0.00,,,0.00,meteohub,2013-09-11 07:52:00,
2013-09-11 03:57:00,70.3,68.5,30.09,WNW,299,2.0,5.0,94,0.00,,,0.00,meteohub,2013-09-11 07:57:00,
2013-09-11 04:02:00,70.3,68.5,30.09,WNW,291,3.0,5.0,94,0.00,,,0.00,meteohub,2013-09-11 08:02:00,
2013-09-11 04:07:00,70.3,68.5,30.10,NNW,341,0.0,4.0,94,0.00,,,0.00,meteohub,2013-09-11 08:07:00,
2013-09-11 04:12:00,70.2,68.4,30.09,NW,308,1.0,5.0,94,0.00,,,0.00,meteohub,2013-09-11 08:12:00,
2013-09-11 04:17:00,70.2,68.4,30.09,West,260,1.0,5.0,94,0.00,,,0.00,meteohub,2013-09-11 08:17:00,
2013-09-11 04:22:00,70.2,68.7,30.09,NNW,347,1.0,5.0,95,0.00,,,0.00,meteohub,2013-09-11 08:22:00,
2013-09-11 04:27:00,70.2,68.7,30.09,North,359,1.0,4.0,95,0.00,,,0.00,meteohub,2013-09-11 08:27:00,
2013-09-11 04:32:00,70.2,68.7,30.09,NW,316,2.0,4.0,95,0.00,,,0.00,meteohub,2013-09-11 08:32:00,
2013-09-11 04:37:00,70.2,68.7,30.09,North,354,3.0,4.0,95,0.00,,,0.00,meteohub,2013-09-11 08:37:00,
2013-09-11 04:42:00,70.2,68.7,30.09,ENE,75,0.0,4.0,95,0.00,,,0.00,meteohub,2013-09-11 08:42:00,
2013-09-11 04:47:00,70.2,68.7,30.09,WNW,302,1.0,4.0,95,0.00,,,0.00,meteohub,2013-09-11 08:47:00,
2013-09-11 04:52:00,70.2,68.7,30.09,NNW,331,3.0,7.0,95,0.00,,,0.00,meteohub,2013-09-11 08:52:00,
2013-09-11 04:57:00,70.2,68.7,30.09,North,354,1.0,7.0,95,0.00,,,0.00,meteohub,2013-09-11 08:57:00,
2013-09-11 05:02:00,70.2,68.7,30.09,NNE,16,0.0,7.0,95,0.00,,,0.00,meteohub,2013-09-11 09:02:00,
2013-09-11 05:07:00,70.2,68.7,30.09,NNW,330,0.0,6.0,95,0.00,,,0.00,meteohub,2013-09-11 09:07:00,
2013-09-11 05:12:00,70.2,68.7,30.09,NW,314,4.0,5.0,95,0.00,,,0.00,meteohub,2013-09-11 09:12:00,
2013-09-11 05:17:00,70.3,68.9,30.10,NW,324,3.0,6.0,95,0.00,,,0.00,meteohub,2013-09-11 09:17:00,
2013-09-11 05:22:00,70.3,68.9,30.10,NNW,348,2.0,6.0,95,0.00,,,0.00,meteohub,2013-09-11 09:22:00,
2013-09-11 05:27:00,70.3,68.9,30.10,NNW,328,4.0,6.0,95,0.00,,,0.00,meteohub,2013-09-11 09:27:00,
2013-09-11 05:32:00,70.3,68.9,30.10,NNW,339,3.0,5.0,95,0.00,,,0.00,meteohub,2013-09-11 09:32:00,
2013-09-11 05:37:00,70.5,69.1,30.11,WNW,296,0.0,6.0,95,0.00,,,0.00,meteohub,2013-09-11 09:37:00,
2013-09-11 05:42:00,70.5,69.1,30.11,NNW,329,1.0,6.0,95,0.00,,,0.00,meteohub,2013-09-11 09:42:00,
2013-09-11 05:47:00,70.5,69.1,30.11,NNE,12,2.0,5.0,95,0.00,,,0.00,meteohub,2013-09-11 09:47:00,
2013-09-11 05:52:00,70.5,69.1,30.11,North,4,2.0,7.0,95,0.00,,,0.00,meteohub,2013-09-11 09:52:00,
2013-09-11 05:57:00,70.3,68.9,30.11,WSW,251,2.0,7.0,95,0.00,,,0.00,meteohub,2013-09-11 09:57:00,
2013-09-11 06:02:00,70.3,68.9,30.11,NW,324,4.0,7.0,95,0.00,,,0.00,meteohub,2013-09-11 10:02:00,
2013-09-11 06:07:00,70.3,68.9,30.12,NNE,22,1.0,6.0,95,0.00,,,0.00,meteohub,2013-09-11 10:07:00,
2013-09-11 06:12:00,70.3,68.9,30.12,NNE,16,1.0,8.0,95,0.00,,,0.00,meteohub,2013-09-11 10:12:00,
2013-09-11 06:17:00,70.2,68.7,30.12,NNW,347,4.0,8.0,95,0.00,,,0.00,meteohub,2013-09-11 10:17:00,
2013-09-11 06:22:00,70.2,68.7,30.12,NNW,337,2.0,8.0,95,0.00,,,0.00,meteohub,2013-09-11 10:22:00,
2013-09-11 06:27:00,70.2,68.7,30.12,WNW,303,1.0,7.0,95,0.00,,,0.00,meteohub,2013-09-11 10:27:00,
2013-09-11 06:32:00,70.2,68.7,30.12,WNW,300,1.0,6.0,95,0.00,,,0.00,meteohub,2013-09-11 10:32:00,
2013-09-11 06:37:00,70.2,68.7,30.12,North,354,1.0,6.0,95,0.00,,,0.00,meteohub,2013-09-11 10:37:00,
2013-09-11 06:42:00,70.2,68.7,30.12,NE,54,4.0,6.0,95,0.00,,,0.00,meteohub,2013-09-11 10:42:00,
2013-09-11 06:47:00,70.2,68.7,30.12,WNW,289,3.0,8.0,95,0.00,,,0.00,meteohub,2013-09-11 10:47:00,
2013-09-11 06:52:00,70.2,68.7,30.13,WNW,302,0.0,8.0,95,0.00,,,0.00,meteohub,2013-09-11 10:52:00,
2013-09-11 06:57:00,70.2,68.7,30.13,WSW,253,2.0,8.0,95,0.00,,,0.00,meteohub,2013-09-11 10:57:00,
2013-09-11 07:02:00,70.2,68.7,30.13,NW,325,1.0,6.0,95,0.00,,,0.00,meteohub,2013-09-11 11:02:00,
2013-09-11 07:07:00,70.3,68.9,30.13,West,276,1.0,6.0,95,0.00,,,0.00,meteohub,2013-09-11 11:07:00,
2013-09-11 07:12:00,70.3,68.9,30.13,SW,236,1.0,7.0,95,0.00,,,0.00,meteohub,2013-09-11 11:12:00,
2013-09-11 07:17:00,70.3,68.9,30.13,NNW,347,4.0,7.0,95,0.00,,,0.00,meteohub,2013-09-11 11:17:00,
2013-09-11 07:22:00,70.3,68.9,30.13,NNW,332,2.0,7.0,95,0.00,,,0.00,meteohub,2013-09-11 11:22:00,
2013-09-11 07:27:00,70.5,69.1,30.13,NNW,328,4.0,7.0,95,0.00,,,0.00,meteohub,2013-09-11 11:27:00,
2013-09-11 07:32:00,70.7,69.3,30.13,NNW,335,1.0,7.0,95,0.00,,,0.00,meteohub,2013-09-11 11:32:00,
2013-09-11 07:37:00,70.9,69.4,30.13,West,267,1.0,7.0,95,0.00,,,0.00,meteohub,2013-09-11 11:37:00,
2013-09-11 07:42:00,71.1,69.6,30.13,NNE,12,1.0,7.0,95,0.00,,,0.00,meteohub,2013-09-11 11:42:00,
2013-09-11 07:47:00,71.2,69.4,30.13,NW,307,0.0,6.0,94,0.00,,,0.00,meteohub,2013-09-11 11:47:00,
2013-09-11 07:52:00,71.4,69.6,30.14,NNW,336,2.0,7.0,94,0.00,,,0.00,meteohub,2013-09-11 11:52:00,
2013-09-11 07:57:00,71.4,69.6,30.14,North,350,3.0,7.0,94,0.00,,,0.00,meteohub,2013-09-11 11:57:00,
2013-09-11 08:02:00,71.8,70.0,30.13,WNW,289,8.0,11.0,94,0.00,,,0.00,meteohub,2013-09-11 12:02:00,
2013-09-11 08:07:00,72.0,70.2,30.14,NW,322,1.0,11.0,94,0.00,,,0.00,meteohub,2013-09-11 12:07:00,
2013-09-11 08:12:00,72.3,70.2,30.13,WNW,295,2.0,11.0,93,0.00,,,0.00,meteohub,2013-09-11 12:12:00,
2013-09-11 08:17:00,72.7,70.5,30.13,WNW,291,2.0,8.0,93,0.00,,,0.00,meteohub,2013-09-11 12:17:00,
2013-09-11 08:22:00,72.9,70.7,30.13,North,9,4.0,7.0,93,0.00,,,0.00,meteohub,2013-09-11 12:22:00,
2013-09-11 08:27:00,73.2,70.7,30.13,NW,322,6.0,7.0,92,0.00,,,0.00,meteohub,2013-09-11 12:27:00,
2013-09-11 08:32:00,73.6,71.1,30.13,NNW,343,3.0,9.0,92,0.00,,,0.00,meteohub,2013-09-11 12:32:00,
2013-09-11 08:37:00,73.9,71.4,30.13,NNW,332,4.0,10.0,92,0.00,,,0.00,meteohub,2013-09-11 12:37:00,
2013-09-11 08:42:00,74.5,71.6,30.13,WNW,298,3.0,10.0,91,0.00,,,0.00,meteohub,2013-09-11 12:42:00,
2013-09-11 08:47:00,74.8,72.0,30.13,North,354,6.0,10.0,91,0.00,,,0.00,meteohub,2013-09-11 12:47:00,
2013-09-11 08:52:00,75.2,72.1,30.13,West,274,2.0,8.0,90,0.00,,,0.00,meteohub,2013-09-11 12:52:00,
2013-09-11 08:57:00,75.7,72.7,30.12,WSW,248,2.0,8.0,90,0.00,,,0.00,meteohub,2013-09-11 12:57:00,
2013-09-11 09:02:00,76.1,72.7,30.12,NW,314,5.0,7.0,89,0.00,,,0.00,meteohub,2013-09-11 13:02:00,
2013-09-11 09:07:00,76.5,73.0,30.12,NW,308,4.0,7.0,89,0.00,,,0.00,meteohub,2013-09-11 13:07:00,
2013-09-11 09:12:00,77.0,73.6,30.12,NW,304,2.0,7.0,89,0.00,,,0.00,meteohub,2013-09-11 13:12:00,
2013-09-11 09:17:00,77.5,73.4,30.12,NNW,328,4.0,7.0,87,0.00,,,0.00,meteohub,2013-09-11 13:17:00,
2013-09-11 09:22:00,77.9,73.8,30.13,NNW,333,1.0,6.0,87,0.00,,,0.00,meteohub,2013-09-11 13:22:00,
2013-09-11 09:27:00,78.3,73.4,30.12,NNW,339,1.0,5.0,85,0.00,,,0.00,meteohub,2013-09-11 13:27:00,
2013-09-11 09:32:00,77.9,73.4,30.13,SE,137,1.0,8.0,86,0.00,,,0.00,meteohub,2013-09-11 13:32:00,
2013-09-11 09:37:00,78.1,73.2,30.12,NNE,21,1.0,8.0,85,0.00,,,0.00,meteohub,2013-09-11 13:37:00,
2013-09-11 09:42:00,78.1,73.2,30.13,SW,218,2.0,8.0,85,0.00,,,0.00,meteohub,2013-09-11 13:42:00,
2013-09-11 09:47:00,77.7,72.5,30.12,WNW,289,5.0,8.0,84,0.00,,,0.00,meteohub,2013-09-11 13:47:00,
2013-09-11 09:52:00,77.7,72.9,30.12,NNW,341,4.0,8.0,85,0.00,,,0.00,meteohub,2013-09-11 13:52:00,
2013-09-11 09:57:00,77.2,72.3,30.12,WNW,289,1.0,8.0,85,0.00,,,0.00,meteohub,2013-09-11 13:57:00,
2013-09-11 10:02:00,77.0,72.1,30.12,West,260,1.0,8.0,85,0.00,,,0.00,meteohub,2013-09-11 14:02:00,
2013-09-11 10:07:00,77.2,72.3,30.12,West,259,3.0,8.0,85,0.00,,,0.00,meteohub,2013-09-11 14:07:00,
2013-09-11 10:12:00,77.0,72.1,30.12,ESE,120,0.0,7.0,85,0.00,,,0.00,meteohub,2013-09-11 14:12:00,
2013-09-11 10:17:00,76.8,72.0,30.12,SSW,197,2.0,7.0,85,0.00,,,0.00,meteohub,2013-09-11 14:17:00,
2013-09-11 10:22:00,77.0,72.1,30.12,SW,235,2.0,7.0,85,0.00,,,0.00,meteohub,2013-09-11 14:22:00,
2013-09-11 10:27:00,77.0,72.1,30.12,West,280,10.0,10.0,85,0.00,,,0.00,meteohub,2013-09-11 14:27:00,
2013-09-11 10:32:00,76.8,72.3,30.12,NW,305,6.0,10.0,86,0.00,,,0.00,meteohub,2013-09-11 14:32:00,
2013-09-11 10:37:00,76.8,72.3,30.12,West,270,6.0,10.0,86,0.00,,,0.00,meteohub,2013-09-11 14:37:00,
2013-09-11 10:42:00,77.0,72.5,30.12,WNW,284,3.0,10.0,86,0.00,,,0.00,meteohub,2013-09-11 14:42:00,
2013-09-11 10:47:00,77.2,72.7,30.12,North,4,0.0,8.0,86,0.00,,,0.00,meteohub,2013-09-11 14:47:00,
2013-09-11 10:52:00,77.4,72.9,30.12,ENE,64,3.0,8.0,86,0.00,,,0.00,meteohub,2013-09-11 14:52:00,
2013-09-11 10:57:00,77.4,72.1,30.12,North,4,3.0,8.0,84,0.00,,,0.00,meteohub,2013-09-11 14:57:00,
2013-09-11 11:02:00,77.2,72.3,30.12,NW,317,3.0,10.0,85,0.00,,,0.00,meteohub,2013-09-11 15:02:00,
2013-09-11 11:07:00,77.0,72.1,30.12,West,281,9.0,10.0,85,0.00,,,0.00,meteohub,2013-09-11 15:07:00,
2013-09-11 11:12:00,76.8,72.0,30.11,NNW,345,2.0,10.0,85,0.00,,,0.00,meteohub,2013-09-11 15:12:00,
2013-09-11 11:17:00,77.0,72.1,30.11,WSW,247,1.0,10.0,85,0.00,,,0.00,meteohub,2013-09-11 15:17:00,
2013-09-11 11:22:00,77.2,72.7,30.12,NE,52,1.0,10.0,86,0.00,,,0.00,meteohub,2013-09-11 15:22:00,
2013-09-11 11:27:00,77.5,72.7,30.11,East,79,2.0,10.0,85,0.00,,,0.00,meteohub,2013-09-11 15:27:00,
2013-09-11 11:32:00,77.5,72.3,30.11,West,271,1.0,10.0,84,0.00,,,0.00,meteohub,2013-09-11 15:32:00,
2013-09-11 11:37:00,77.5,72.7,30.11,North,354,5.0,9.0,85,0.00,,,0.00,meteohub,2013-09-11 15:37:00,
2013-09-11 11:42:00,77.5,72.7,30.11,East,100,2.0,9.0,85,0.00,,,0.00,meteohub,2013-09-11 15:42:00,
2013-09-11 11:47:00,77.7,72.5,30.11,North,359,4.0,9.0,84,0.00,,,0.00,meteohub,2013-09-11 15:47:00,
2013-09-11 11:52:00,78.1,72.9,30.11,North,4,3.0,9.0,84,0.00,,,0.00,meteohub,2013-09-11 15:52:00,
2013-09-11 11:57:00,78.3,73.0,30.11,WSW,239,1.0,8.0,84,0.00,,,0.00,meteohub,2013-09-11 15:57:00,
2013-09-11 12:02:00,78.4,73.2,30.11,ESE,121,3.0,8.0,84,0.00,,,0.00,meteohub,2013-09-11 16:02:00,
2013-09-11 12:08:00,78.4,72.9,30.11,West,279,4.0,6.0,83,0.00,,,0.00,meteohub,2013-09-11 16:08:00,
2013-09-11 12:13:00,78.3,72.7,30.11,NNE,27,1.0,9.0,83,0.00,,,0.00,meteohub,2013-09-11 16:13:00,
2013-09-11 12:18:00,78.3,73.0,30.11,NNW,338,5.0,9.0,84,0.00,,,0.00,meteohub,2013-09-11 16:18:00,
2013-09-11 12:23:00,78.1,72.5,30.11,SE,129,2.0,12.0,83,0.00,,,0.00,meteohub,2013-09-11 16:23:00,
2013-09-11 12:28:00,77.7,72.5,30.10,NNW,333,2.0,12.0,84,0.00,,,0.00,meteohub,2013-09-11 16:28:00,
2013-09-11 12:33:00,78.1,72.9,30.10,West,269,2.0,12.0,84,0.00,,,0.00,meteohub,2013-09-11 16:33:00,
2013-09-11 12:38:00,78.1,72.9,30.10,ESE,111,2.0,12.0,84,0.00,,,0.00,meteohub,2013-09-11 16:38:00,
2013-09-11 12:43:00,78.1,72.5,30.10,ESE,114,5.0,9.0,83,0.00,,,0.00,meteohub,2013-09-11 16:43:00,
2013-09-11 12:48:00,77.7,72.1,30.11,WSW,244,1.0,9.0,83,0.00,,,0.00,meteohub,2013-09-11 16:48:00,
2013-09-11 12:53:00,77.5,72.3,30.11,ESE,118,2.0,8.0,84,0.00,,,0.00,meteohub,2013-09-11 16:53:00,
2013-09-11 12:58:00,77.4,72.1,30.10,SE,137,1.0,9.0,84,0.00,,,0.00,meteohub,2013-09-11 16:58:00,
2013-09-11 13:03:00,77.4,72.1,30.10,NE,34,1.0,10.0,84,0.00,,,0.00,meteohub,2013-09-11 17:03:00,
2013-09-11 13:08:00,77.7,72.5,30.10,NW,315,4.0,10.0,84,0.00,,,0.00,meteohub,2013-09-11 17:08:00,
2013-09-11 13:13:00,78.1,72.9,30.09,East,100,1.0,10.0,84,0.00,,,0.00,meteohub,2013-09-11 17:13:00,
2013-09-11 13:18:00,78.4,73.2,30.09,NNW,340,1.0,8.0,84,0.00,,,0.00,meteohub,2013-09-11 17:18:00,
2013-09-11 13:23:00,78.4,72.9,30.09,WSW,253,3.0,8.0,83,0.00,,,0.00,meteohub,2013-09-11 17:23:00,
2013-09-11 13:28:00,78.4,72.9,30.09,SW,216,2.0,8.0,83,0.00,,,0.00,meteohub,2013-09-11 17:28:00,
2013-09-11 13:33:00,78.4,72.9,30.09,SSW,200,0.0,8.0,83,0.00,,,0.00,meteohub,2013-09-11 17:33:00,
2013-09-11 13:38:00,78.6,73.0,30.09,NW,316,4.0,8.0,83,0.00,,,0.00,meteohub,2013-09-11 17:38:00,
2013-09-11 13:43:00,78.6,73.0,30.09,West,262,2.0,8.0,83,0.00,,,0.00,meteohub,2013-09-11 17:43:00,
2013-09-11 13:48:00,79.0,73.0,30.09,NNE,20,1.0,7.0,82,0.00,,,0.00,meteohub,2013-09-11 17:48:00,
2013-09-11 13:53:00,79.2,73.2,30.08,NW,326,2.0,7.0,82,0.00,,,0.00,meteohub,2013-09-11 17:53:00,
2013-09-11 13:58:00,79.2,73.2,30.08,NW,315,6.0,8.0,82,0.00,,,0.00,meteohub,2013-09-11 17:58:00,
2013-09-11 14:03:00,79.3,73.4,30.08,NW,320,5.0,10.0,82,0.00,,,0.00,meteohub,2013-09-11 18:03:00,
2013-09-11 14:08:00,79.3,73.8,30.08,NNW,332,5.0,10.0,83,0.00,,,0.00,meteohub,2013-09-11 18:08:00,
2013-09-11 14:13:00,79.3,73.4,30.08,WNW,299,2.0,10.0,82,0.00,,,0.00,meteohub,2013-09-11 18:13:00,
2013-09-11 14:18:00,79.9,73.6,30.08,ENE,76,1.0,9.0,81,0.00,,,0.00,meteohub,2013-09-11 18:18:00,
2013-09-11 14:23:00,79.5,72.9,30.08,NW,310,7.0,9.0,80,0.00,,,0.00,meteohub,2013-09-11 18:23:00,
2013-09-11 14:28:00,79.2,73.2,30.07,SSW,201,1.0,9.0,82,0.00,,,0.00,meteohub,2013-09-11 18:28:00,
2013-09-11 14:33:00,79.3,73.4,30.08,NW,326,5.0,9.0,82,0.00,,,0.00,meteohub,2013-09-11 18:33:00,
2013-09-11 14:38:00,79.3,72.7,30.07,West,264,3.0,9.0,80,0.00,,,0.00,meteohub,2013-09-11 18:38:00,
2013-09-11 14:44:00,79.2,73.2,30.07,North,359,3.0,9.0,82,0.00,,,0.00,meteohub,2013-09-11 18:44:00,
2013-09-11 14:49:00,78.6,72.7,30.07,NNW,328,1.0,9.0,82,0.00,,,0.00,meteohub,2013-09-11 18:49:00,
2013-09-11 14:54:00,78.6,72.7,30.07,East,92,1.0,12.0,82,0.00,,,0.00,meteohub,2013-09-11 18:54:00,
2013-09-11 14:59:00,78.4,72.5,30.07,NNE,18,1.0,12.0,82,0.00,,,0.00,meteohub,2013-09-11 18:59:00,
2013-09-11 15:04:00,78.4,72.9,30.07,ESE,122,2.0,8.0,83,0.00,,,0.00,meteohub,2013-09-11 19:04:00,
2013-09-11 15:09:00,78.3,72.3,30.07,WNW,294,6.0,9.0,82,0.00,,,0.00,meteohub,2013-09-11 19:09:00,
2013-09-11 15:14:00,78.3,72.7,30.07,WSW,237,2.0,9.0,83,0.00,,,0.00,meteohub,2013-09-11 19:14:00,
2013-09-11 15:19:00,78.3,72.7,30.07,North,354,1.0,8.0,83,0.00,,,0.00,meteohub,2013-09-11 19:19:00,
2013-09-11 15:24:00,78.3,72.7,30.06,NE,35,5.0,8.0,83,0.00,,,0.00,meteohub,2013-09-11 19:24:00,
2013-09-11 15:29:00,78.6,73.0,30.06,ENE,73,1.0,9.0,83,0.00,,,0.00,meteohub,2013-09-11 19:29:00,
2013-09-11 15:34:00,79.2,73.2,30.06,NNW,335,1.0,9.0,82,0.00,,,0.00,meteohub,2013-09-11 19:34:00,
2013-09-11 15:39:00,79.5,73.6,30.06,NE,38,2.0,8.0,82,0.00,,,0.00,meteohub,2013-09-11 19:39:00,
2013-09-11 15:44:00,80.1,73.8,30.06,WSW,247,4.0,8.0,81,0.00,,,0.00,meteohub,2013-09-11 19:44:00,
2013-09-11 15:49:00,79.5,72.9,30.06,South,176,1.0,7.0,80,0.00,,,0.00,meteohub,2013-09-11 19:49:00,
2013-09-11 15:54:00,78.6,72.3,30.06,WSW,257,4.0,9.0,81,0.00,,,0.00,meteohub,2013-09-11 19:54:00,
2013-09-11 15:59:00,78.3,72.3,30.06,NE,51,3.0,9.0,82,0.00,,,0.00,meteohub,2013-09-11 19:59:00,
2013-09-11 16:04:00,77.9,72.0,30.06,WSW,247,2.0,9.0,82,0.00,,,0.00,meteohub,2013-09-11 20:04:00,
2013-09-11 16:09:00,77.9,72.3,30.06,WNW,295,4.0,9.0,83,0.00,,,0.00,meteohub,2013-09-11 20:09:00,
2013-09-11 16:14:00,77.9,72.3,30.05,ENE,63,4.0,10.0,83,0.00,,,0.00,meteohub,2013-09-11 20:14:00,
2013-09-11 16:19:00,78.1,72.5,30.05,West,261,2.0,10.0,83,0.00,,,0.00,meteohub,2013-09-11 20:19:00,
2013-09-11 16:24:00,77.7,72.1,30.05,NNW,347,2.0,10.0,83,0.00,,,0.00,meteohub,2013-09-11 20:24:00,
2013-09-11 16:29:00,77.9,72.3,30.05,NE,43,3.0,9.0,83,0.00,,,0.00,meteohub,2013-09-11 20:29:00,
2013-09-11 16:34:00,77.9,72.3,30.05,North,354,4.0,9.0,83,0.00,,,0.00,meteohub,2013-09-11 20:34:00,
2013-09-11 16:39:00,77.7,72.1,30.05,East,85,2.0,8.0,83,0.00,,,0.00,meteohub,2013-09-11 20:39:00,
2013-09-11 16:44:00,77.7,72.1,30.05,NW,321,2.0,10.0,83,0.00,,,0.00,meteohub,2013-09-11 20:44:00,
2013-09-11 16:49:00,77.7,72.1,30.04,WSW,253,7.0,10.0,83,0.00,,,0.00,meteohub,2013-09-11 20:49:00,
2013-09-11 16:54:00,77.7,72.1,30.04,East,100,1.0,10.0,83,0.00,,,0.00,meteohub,2013-09-11 20:54:00,
2013-09-11 16:59:00,77.7,72.1,30.04,East,82,1.0,9.0,83,0.00,,,0.00,meteohub,2013-09-11 20:59:00,
2013-09-11 17:04:00,77.9,72.3,30.04,NW,320,3.0,9.0,83,0.00,,,0.00,meteohub,2013-09-11 21:04:00,
2013-09-11 17:09:00,77.7,71.8,30.04,NNW,328,4.0,7.0,82,0.00,,,0.00,meteohub,2013-09-11 21:09:00,
2013-09-11 17:14:00,77.5,72.0,30.04,West,270,2.0,6.0,83,0.00,,,0.00,meteohub,2013-09-11 21:14:00,
2013-09-11 17:19:00,77.4,71.8,30.04,ENE,68,2.0,6.0,83,0.00,,,0.00,meteohub,2013-09-11 21:19:00,
2013-09-11 17:24:00,77.2,71.6,30.04,SW,226,3.0,7.0,83,0.00,,,0.00,meteohub,2013-09-11 21:24:00,
2013-09-11 17:29:00,76.8,71.6,30.03,East,85,3.0,7.0,84,0.00,,,0.00,meteohub,2013-09-11 21:29:00,
2013-09-11 17:34:00,76.5,71.6,30.03,SE,133,2.0,7.0,85,0.00,,,0.00,meteohub,2013-09-11 21:34:00,
2013-09-11 17:39:00,75.9,71.1,30.03,NW,316,2.0,7.0,85,0.00,,,0.00,meteohub,2013-09-11 21:39:00,
2013-09-11 17:44:00,75.6,71.1,30.03,ENE,60,1.0,8.0,86,0.00,,,0.00,meteohub,2013-09-11 21:44:00,
2013-09-11 17:49:00,75.2,70.7,30.03,ESE,120,2.0,8.0,86,0.00,,,0.00,meteohub,2013-09-11 21:49:00,
2013-09-11 17:54:00,74.8,70.7,30.03,NNE,23,1.0,8.0,87,0.00,,,0.00,meteohub,2013-09-11 21:54:00,
2013-09-11 17:59:00,74.7,70.9,30.03,NE,41,2.0,7.0,88,0.00,,,0.00,meteohub,2013-09-11 21:59:00,
2013-09-11 18:04:00,74.5,70.7,30.03,NE,36,2.0,7.0,88,0.00,,,0.00,meteohub,2013-09-11 22:04:00,
2013-09-11 18:09:00,74.1,70.7,30.03,NW,312,1.0,6.0,89,0.00,,,0.00,meteohub,2013-09-11 22:09:00,
2013-09-11 18:14:00,73.9,70.5,30.03,West,277,4.0,6.0,89,0.00,,,0.00,meteohub,2013-09-11 22:14:00,
2013-09-11 18:19:00,73.9,70.5,30.04,WSW,253,0.0,5.0,89,0.00,,,0.00,meteohub,2013-09-11 22:19:00,
2013-09-11 18:24:00,73.8,70.3,30.04,North,354,5.0,6.0,89,0.00,,,0.00,meteohub,2013-09-11 22:24:00,
2013-09-11 18:29:00,73.6,70.5,30.04,WNW,297,3.0,6.0,90,0.00,,,0.00,meteohub,2013-09-11 22:29:00,
2013-09-11 18:34:00,73.6,70.5,30.04,NW,308,2.0,6.0,90,0.00,,,0.00,meteohub,2013-09-11 22:34:00,
2013-09-11 18:39:00,73.6,70.5,30.04,NNE,18,2.0,7.0,90,0.00,,,0.00,meteohub,2013-09-11 22:39:00,
2013-09-11 18:44:00,73.4,70.3,30.04,SW,220,2.0,7.0,90,0.00,,,0.00,meteohub,2013-09-11 22:44:00,
2013-09-11 18:49:00,73.4,70.3,30.04,North,359,2.0,7.0,90,0.00,,,0.00,meteohub,2013-09-11 22:49:00,
2013-09-11 18:54:00,73.2,70.2,30.05,South,170,2.0,6.0,90,0.00,,,0.00,meteohub,2013-09-11 22:54:00,
2013-09-11 18:59:00,73.2,70.2,30.05,NE,41,1.0,5.0,90,0.00,,,0.00,meteohub,2013-09-11 22:59:00,
2013-09-11 19:04:00,73.2,70.2,30.05,North,4,3.0,6.0,90,0.00,,,0.00,meteohub,2013-09-11 23:04:00,
2013-09-11 19:09:00,73.0,70.0,30.05,NNE,25,3.0,6.0,90,0.00,,,0.00,meteohub,2013-09-11 23:09:00,
2013-09-11 19:14:00,73.0,70.3,30.05,NW,311,3.0,5.0,91,0.00,,,0.00,meteohub,2013-09-11 23:14:00,
2013-09-11 19:19:00,72.9,70.2,30.06,NW,321,2.0,5.0,91,0.00,,,0.00,meteohub,2013-09-11 23:19:00,
2013-09-11 19:24:00,72.9,70.2,30.06,WNW,303,4.0,5.0,91,0.00,,,0.00,meteohub,2013-09-11 23:24:00,
2013-09-11 19:29:00,72.7,70.0,30.06,NNW,330,3.0,5.0,91,0.00,,,0.00,meteohub,2013-09-11 23:29:00,
2013-09-11 19:34:00,72.7,70.0,30.06,WNW,283,0.0,5.0,91,0.00,,,0.00,meteohub,2013-09-11 23:34:00,
2013-09-11 19:39:00,72.5,69.8,30.06,ESE,110,0.0,5.0,91,0.00,,,0.00,meteohub,2013-09-11 23:39:00,
2013-09-11 19:44:00,72.3,69.6,30.05,ESE,117,2.0,5.0,91,0.00,,,0.00,meteohub,2013-09-11 23:44:00,
2013-09-11 19:49:00,72.3,69.6,30.05,NE,55,0.0,6.0,91,0.00,,,0.00,meteohub,2013-09-11 23:49:00,
2013-09-11 19:54:00,72.3,69.8,30.06,NE,35,1.0,6.0,92,0.00,,,0.00,meteohub,2013-09-11 23:54:00,
2013-09-11 19:59:00,72.3,69.8,30.06,NE,37,1.0,5.0,92,0.00,,,0.00,meteohub,2013-09-11 23:59:00,
2013-09-11 20:04:00,72.1,69.6,30.06,North,354,1.0,4.0,92,0.00,,,0.00,meteohub,2013-09-12 00:04:00,
2013-09-11 20:09:00,72.1,69.6,30.06,NNW,340,2.0,4.0,92,0.00,,,0.00,meteohub,2013-09-12 00:09:00,
2013-09-11 20:14:00,72.1,69.6,30.05,NNW,329,0.0,4.0,92,0.00,,,0.00,meteohub,2013-09-12 00:14:00,
2013-09-11 20:19:00,72.1,69.6,30.05,NNW,346,1.0,4.0,92,0.00,,,0.00,meteohub,2013-09-12 00:19:00,
2013-09-11 20:24:00,72.0,69.4,30.06,NW,318,3.0,4.0,92,0.00,,,0.00,meteohub,2013-09-12 00:24:00,
2013-09-11 20:29:00,72.1,69.6,30.06,NNW,330,1.0,3.0,92,0.00,,,0.00,meteohub,2013-09-12 00:29:00,
2013-09-11 20:34:00,72.0,69.4,30.05,NNE,14,0.0,5.0,92,0.00,,,0.00,meteohub,2013-09-12 00:34:00,
2013-09-11 20:39:00,72.0,69.4,30.05,NNE,12,4.0,5.0,92,0.00,,,0.00,meteohub,2013-09-12 00:39:00,
2013-09-11 20:44:00,72.0,69.4,30.05,ENE,62,0.0,5.0,92,0.00,,,0.00,meteohub,2013-09-12 00:44:00,
2013-09-11 20:49:00,72.0,69.4,30.06,NW,322,1.0,5.0,92,0.00,,,0.00,meteohub,2013-09-12 00:49:00,
2013-09-11 20:54:00,72.0,69.4,30.06,NW,320,3.0,5.0,92,0.00,,,0.00,meteohub,2013-09-12 00:54:00,
2013-09-11 20:59:00,72.1,69.6,30.06,NNW,348,0.0,5.0,92,0.00,,,0.00,meteohub,2013-09-12 00:59:00,
2013-09-11 21:04:00,72.1,69.6,30.06,North,10,0.0,6.0,92,0.00,,,0.00,meteohub,2013-09-12 01:04:00,
2013-09-11 21:09:00,72.1,69.6,30.06,NNW,328,2.0,6.0,92,0.00,,,0.00,meteohub,2013-09-12 01:09:00,
2013-09-11 21:14:00,72.1,69.6,30.05,WNW,302,2.0,5.0,92,0.00,,,0.00,meteohub,2013-09-12 01:14:00,
2013-09-11 21:19:00,72.1,69.6,30.05,NW,322,1.0,5.0,92,0.00,,,0.00,meteohub,2013-09-12 01:19:00,
2013-09-11 21:24:00,72.1,69.6,30.05,NNW,333,4.0,5.0,92,0.00,,,0.00,meteohub,2013-09-12 01:24:00,
2013-09-11 21:29:00,72.3,69.8,30.05,NNW,328,4.0,6.0,92,0.00,,,0.00,meteohub,2013-09-12 01:29:00,
2013-09-11 21:34:00,72.3,69.8,30.05,NW,310,2.0,6.0,92,0.00,,,0.00,meteohub,2013-09-12 01:34:00,
2013-09-11 21:39:00,72.3,69.6,30.05,WSW,251,2.0,6.0,91,0.00,,,0.00,meteohub,2013-09-12 01:39:00,
2013-09-11 21:44:00,72.3,69.6,30.06,NNW,329,1.0,5.0,91,0.00,,,0.00,meteohub,2013-09-12 01:44:00,
2013-09-11 21:49:00,72.3,69.6,30.06,East,89,1.0,6.0,91,0.00,,,0.00,meteohub,2013-09-12 01:49:00,
2013-09-11 21:54:00,72.5,69.8,30.05,NNE,18,1.0,6.0,91,0.00,,,0.00,meteohub,2013-09-12 01:54:00,
2013-09-11 21:59:00,72.5,69.8,30.05,ESE,105,0.0,6.0,91,0.00,,,0.00,meteohub,2013-09-12 01:59:00,
2013-09-11 22:04:00,72.3,69.6,30.05,NW,316,3.0,3.0,91,0.00,,,0.00,meteohub,2013-09-12 02:04:00,
2013-09-11 22:09:00,72.5,69.8,30.05,North,8,0.0,4.0,91,0.00,,,0.00,meteohub,2013-09-12 02:09:00,
2013-09-11 22:14:00,72.3,69.6,30.05,West,280,1.0,4.0,91,0.00,,,0.00,meteohub,2013-09-12 02:14:00,
2013-09-11 22:19:00,72.3,69.6,30.05,NW,318,2.0,5.0,91,0.00,,,0.00,meteohub,2013-09-12 02:19:00,
2013-09-11 22:24:00,72.3,69.6,30.05,NW,319,0.0,5.0,91,0.00,,,0.00,meteohub,2013-09-12 02:24:00,
2013-09-11 22:29:00,72.3,69.6,30.05,NNW,339,2.0,5.0,91,0.00,,,0.00,meteohub,2013-09-12 02:29:00,
2013-09-11 22:34:00,72.3,69.6,30.05,North,10,0.0,5.0,91,0.00,,,0.00,meteohub,2013-09-12 02:34:00,
2013-09-11 22:39:00,72.3,69.6,30.05,NNW,335,0.0,6.0,91,0.00,,,0.00,meteohub,2013-09-12 02:39:00,
2013-09-11 22:44:00,72.3,69.6,30.05,NW,312,0.0,6.0,91,0.00,,,0.00,meteohub,2013-09-12 02:44:00,
2013-09-11 22:49:00,72.3,69.8,30.05,ENE,78,1.0,6.0,92,0.00,,,0.00,meteohub,2013-09-12 02:49:00,
2013-09-11 22:54:00,72.3,69.8,30.05,ESE,105,1.0,4.0,92,0.00,,,0.00,meteohub,2013-09-12 02:54:00,
2013-09-11 22:59:00,72.3,69.6,30.05,NNW,345,2.0,5.0,91,0.00,,,0.00,meteohub,2013-09-12 02:59:00,
2013-09-11 23:04:00,72.3,69.6,30.05,NNW,348,2.0,5.0,91,0.00,,,0.00,meteohub,2013-09-12 03:04:00,
2013-09-11 23:09:00,72.3,69.8,30.04,NNW,332,1.0,5.0,92,0.00,,,0.00,meteohub,2013-09-12 03:09:00,
2013-09-11 23:14:00,72.1,69.6,30.04,NNW,343,1.0,4.0,92,0.00,,,0.00,meteohub,2013-09-12 03:14:00,
2013-09-11 23:19:00,72.1,69.6,30.04,NW,324,2.0,4.0,92,0.00,,,0.00,meteohub,2013-09-12 03:19:00,
2013-09-11 23:24:00,72.1,69.6,30.04,WSW,253,1.0,4.0,92,0.00,,,0.00,meteohub,2013-09-12 03:24:00,
2013-09-11 23:29:00,72.1,69.6,30.04,North,359,0.0,4.0,92,0.00,,,0.00,meteohub,2013-09-12 03:29:00,
2013-09-11 23:35:00,72.0,69.4,30.03,ENE,73,1.0,4.0,92,0.00,,,0.00,meteohub,2013-09-12 03:35:00,
2013-09-11 23:40:00,72.0,69.4,30.03,WNW,283,2.0,5.0,92,0.00,,,0.00,meteohub,2013-09-12 03:40:00,
2013-09-11 23:45:00,72.0,69.4,30.03,NNE,31,0.0,5.0,92,0.00,,,0.00,meteohub,2013-09-12 03:45:00,
2013-09-11 23:50:00,72.0,69.4,30.03,North,349,1.0,3.0,92,0.00,,,0.00,meteohub,2013-09-12 03:50:00,
2013-09-11 23:55:00,71.8,69.3,30.03,NNW,339,1.0,4.0,92,0.00,,,0.00,meteohub,2013-09-12 03:55:00,